AZA9450 LIML-LIMC

Flight info

Callsign AZA9450
Flight time 0h 12m
Altitude 6000
Route VECTORS FOR IFR APPR LIMC
Aircraft A320/M-SDE3FGHIRWY/LB1

Departure

Time 2026-04-30 06:33
Airport Milano Linate Airport (LIML)

Arrival

Time 2026-04-30 06:45
Airport Milan Malpensa International Airport (LIMC)
Time Latitude Longitude Altitude Speed Heading
2026-04-30 06:21 45.45652 9.27893 366 ft 0 kts 90°
2026-04-30 06:29 45.45652 9.27906 367 ft 2 kts 90°
2026-04-30 06:29 45.45652 9.27924 363 ft 1 kts 90°
2026-04-30 06:30 45.45652 9.27933 363 ft 0 kts 90°
2026-04-30 06:30 45.45639 9.27975 363 ft 9 kts 144°
2026-04-30 06:31 45.45569 9.27980 363 ft 10 kts 180°
2026-04-30 06:31 45.45500 9.27979 365 ft 9 kts 180°
2026-04-30 06:31 45.45457 9.27929 369 ft 9 kts 264°
2026-04-30 06:31 45.45459 9.27849 362 ft 8 kts 271°
2026-04-30 06:32 45.45449 9.27777 365 ft 10 kts 239°
2026-04-30 06:32 45.45393 9.27712 360 ft 11 kts 213°
2026-04-30 06:32 45.45331 9.27654 362 ft 11 kts 213°
2026-04-30 06:32 45.45268 9.27624 359 ft 9 kts 176°
2026-04-30 06:33 45.45120 9.27642 358 ft 53 kts 175°
2026-04-30 06:33 45.44504 9.27710 357 ft 122 kts 175°
2026-04-30 06:33 45.43506 9.27801 581 ft 151 kts 172°
2026-04-30 06:33 45.42456 9.27811 1215 ft 154 kts 176°
2026-04-30 06:34 45.41370 9.27767 1859 ft 159 kts 176°
2026-04-30 06:34 45.40229 9.27688 2329 ft 173 kts 176°
2026-04-30 06:34 45.38954 9.27587 2640 ft 196 kts 176°
2026-04-30 06:34 45.37510 9.27446 2971 ft 220 kts 177°
2026-04-30 06:35 45.35890 9.27312 3419 ft 244 kts 177°
2026-04-30 06:35 45.34147 9.27209 4167 ft 256 kts 177°
2026-04-30 06:35 45.32377 9.26987 5088 ft 265 kts 190°
2026-04-30 06:35 45.30684 9.25797 5755 ft 282 kts 218°
2026-04-30 06:36 45.29547 9.23478 5957 ft 288 kts 251°
2026-04-30 06:36 45.29367 9.20720 6005 ft 287 kts 281°
2026-04-30 06:36 45.29855 9.17971 6008 ft 286 kts 286°
2026-04-30 06:36 45.30383 9.15237 6002 ft 288 kts 286°
2026-04-30 06:37 45.30910 9.12489 6009 ft 288 kts 286°
2026-04-30 06:37 45.31430 9.09748 6007 ft 287 kts 285°
2026-04-30 06:37 45.31947 9.06999 6009 ft 289 kts 286°
2026-04-30 06:37 45.32462 9.04242 6002 ft 289 kts 286°
2026-04-30 06:38 45.32977 9.01481 5995 ft 289 kts 286°
2026-04-30 06:38 45.33493 8.98706 5882 ft 290 kts 285°
2026-04-30 06:38 45.34003 8.95954 5767 ft 282 kts 285°
2026-04-30 06:38 45.34490 8.93319 5642 ft 271 kts 285°
2026-04-30 06:39 45.34958 8.90780 5510 ft 259 kts 285°
2026-04-30 06:39 45.35406 8.88349 5397 ft 250 kts 285°
2026-04-30 06:39 45.35835 8.86020 5260 ft 236 kts 285°
2026-04-30 06:39 45.36254 8.83835 5138 ft 224 kts 291°
2026-04-30 06:40 45.37001 8.81934 5006 ft 219 kts 313°
2026-04-30 06:40 45.38137 8.80546 4877 ft 214 kts 334°
2026-04-30 06:40 45.39503 8.79812 4740 ft 208 kts 354°
2026-04-30 06:40 45.40919 8.79427 4621 ft 205 kts 354°
2026-04-30 06:41 45.42292 8.79050 4549 ft 197 kts 354°
2026-04-30 06:41 45.43639 8.78682 4300 ft 196 kts 354°
2026-04-30 06:41 45.44983 8.78314 4052 ft 197 kts 354°
2026-04-30 06:41 45.46325 8.77946 3803 ft 196 kts 354°
2026-04-30 06:42 45.47660 8.77580 3534 ft 195 kts 355°
2026-04-30 06:42 45.48986 8.77215 3273 ft 193 kts 354°
2026-04-30 06:42 45.50299 8.76854 2999 ft 190 kts 354°
2026-04-30 06:42 45.51548 8.76510 2756 ft 182 kts 354°
2026-04-30 06:43 45.52778 8.76172 2516 ft 179 kts 354°
2026-04-30 06:43 45.53991 8.75839 2276 ft 176 kts 354°
2026-04-30 06:43 45.55167 8.75514 2060 ft 164 kts 354°
2026-04-30 06:43 45.56238 8.75217 1820 ft 150 kts 354°
2026-04-30 06:44 45.57231 8.74944 1648 ft 142 kts 353°
2026-04-30 06:44 45.58195 8.74680 1436 ft 141 kts 353°
2026-04-30 06:44 45.59153 8.74417 1236 ft 140 kts 351°
2026-04-30 06:44 45.60105 8.74152 1053 ft 139 kts 351°
2026-04-30 06:45 45.61058 8.73887 889 ft 140 kts 351°
2026-04-30 06:45 45.62007 8.73624 751 ft 134 kts 353°
2026-04-30 06:45 45.62769 8.73420 744 ft 86 kts 349°
2026-04-30 06:45 45.63192 8.73302 744 ft 41 kts 349°
2026-04-30 06:46 45.63464 8.73227 744 ft 39 kts 349°
2026-04-30 06:46 45.63706 8.73089 745 ft 37 kts 323°
2026-04-30 06:46 45.63838 8.72868 752 ft 26 kts 304°
2026-04-30 06:46 45.63927 8.72680 752 ft 23 kts 304°
2026-04-30 06:47 45.63946 8.72468 750 ft 21 kts 259°
2026-04-30 06:47 45.63923 8.72298 751 ft 15 kts 259°
2026-04-30 06:47 45.63915 8.72149 747 ft 16 kts 267°
2026-04-30 06:47 45.63906 8.71965 744 ft 20 kts 263°
2026-04-30 06:48 45.63844 8.71826 752 ft 16 kts 200°
2026-04-30 06:48 45.63726 8.71844 751 ft 19 kts 168°
2026-04-30 06:48 45.63588 8.71887 752 ft 21 kts 169°
2026-04-30 06:48 45.63434 8.71928 749 ft 23 kts 171°
2026-04-30 06:49 45.63307 8.71874 751 ft 21 kts 257°
2026-04-30 06:49 45.63276 8.71667 752 ft 21 kts 259°
2026-04-30 06:49 45.63250 8.71479 752 ft 18 kts 259°
2026-04-30 06:49 45.63252 8.71369 751 ft 7 kts 309°
2026-04-30 06:50 45.63282 8.71316 751 ft 6 kts 303°
2026-04-30 06:50 45.63303 8.71274 751 ft 0 kts 307°